| time (UTC) | temp C | wind direction | speed KPH | gust KPH | rain 1hr cm | rain 24hr cm | rain mn cm | humidity % | barometer mb |
| 20260507070517 | 5 | 254 | 4.8 | 8.0 | 0.00 | 0.33 | 0.00 | 92 | 1005.5 |
| 20260507070044 | 5 | 240 | 3.2 | 4.8 | 0.00 | 0.33 | 0.00 | 92 | 1005.5 |
| 20260507065516 | 5 | 236 | 3.2 | 4.8 | 0.00 | 0.33 | 0.00 | 92 | 1005.4 |
| 20260507065017 | 5 | 244 | 3.2 | 4.8 | 0.00 | 0.33 | 0.00 | 92 | 1005.4 |
| 20260507064544 | 5 | 244 | 3.2 | 4.8 | 0.00 | 0.33 | 0.00 | 92 | 1005.4 |
| 20260507064018 | 5 | 244 | 3.2 | 3.2 | 0.00 | 0.33 | 0.00 | 92 | 1005.4 |
| 20260507063518 | 5 | 244 | 3.2 | 6.4 | 0.00 | 0.33 | 0.00 | 92 | 1005.5 |
| 20260507063036 | 5 | 242 | 3.2 | 6.4 | 0.00 | 0.33 | 0.00 | 92 | 1005.4 |
| 20260507062518 | 5 | 239 | 4.8 | 8.0 | 0.00 | 0.33 | 0.00 | 91 | 1005.5 |
| 20260507062017 | 5 | 237 | 4.8 | 8.0 | 0.00 | 0.33 | 0.00 | 92 | 1005.6 |
| 20260507061532 | 5 | 257 | 3.2 | 6.4 | 0.00 | 0.33 | 0.00 | 92 | 1005.6 |
| 20260507061020 | 5 | 242 | 4.8 | 9.7 | 0.00 | 0.33 | 0.00 | 91 | 1005.6 |
| 20260507060515 | 5 | 233 | 4.8 | 9.7 | 0.00 | 0.33 | 0.00 | 91 | 1005.6 |
| 20260507060032 | 5 | 232 | 6.4 | 9.7 | 0.00 | 0.33 | 0.00 | 92 | 1005.7 |
| 20260507055516 | 5 | 234 | 4.8 | 8.0 | 0.00 | 0.33 | 0.00 | 92 | 1005.8 |
| 20260507055011 | 5 | 227 | 4.8 | 6.4 | 0.00 | 0.33 | 0.00 | 92 | 1005.8 |
| 20260507054530 | 5 | 223 | 4.8 | 6.4 | 0.00 | 0.33 | 0.00 | 92 | 1005.9 |
| 20260507054015 | 5 | 225 | 4.8 | 8.0 | 0.00 | 0.33 | 0.00 | 92 | 1006.0 |
| 20260507053516 | 5 | 221 | 4.8 | 8.0 | 0.00 | 0.33 | 0.00 | 92 | 1006.1 |
| 20260507053032 | 5 | 213 | 4.8 | 9.7 | 0.00 | 0.33 | 0.00 | 92 | 1006.1 |
| 20260507052515 | 5 | 225 | 4.8 | 9.7 | 0.00 | 0.33 | 0.00 | 92 | 1006.1 |
| 20260507052016 | 5 | 228 | 6.4 | 9.7 | 0.00 | 0.33 | 0.00 | 92 | 1006.1 |
| 20260507051532 | 5 | 238 | 6.4 | 9.7 | 0.00 | 0.33 | 0.00 | 92 | 1006.2 |
| 20260507051016 | 5 | 229 | 6.4 | 9.7 | 0.00 | 0.33 | 0.00 | 91 | 1006.2 |
| 20260507050515 | 5 | 227 | 6.4 | 9.7 | 0.00 | 0.33 | 0.00 | 91 | 1006.4 |
| 20260507050033 | 5 | 222 | 6.4 | 9.7 | 0.00 | 0.33 | 0.00 | 91 | 1006.5 |
| 20260507045515 | 5 | 229 | 6.4 | 9.7 | 0.00 | 0.33 | 0.00 | 91 | 1006.6 |
| 20260507045016 | 5 | 235 | 4.8 | 8.0 | 0.00 | 0.33 | 0.00 | 91 | 1006.6 |
| 20260507044530 | 5 | 240 | 4.8 | 8.0 | 0.00 | 0.33 | 0.00 | 91 | 1006.6 |
| 20260507044015 | 5 | 238 | 4.8 | 8.0 | 0.00 | 0.33 | 0.00 | 91 | 1006.7 |
| 20260507043516 | 5 | 229 | 6.4 | 8.0 | 0.00 | 0.33 | 0.00 | 91 | 1006.6 |
| 20260507043031 | 5 | 225 | 4.8 | 8.0 | 0.00 | 0.33 | 0.00 | 90 | 1006.7 |
| 20260507042516 | 5 | 227 | 4.8 | 8.0 | 0.00 | 0.33 | 0.00 | 90 | 1006.7 |
| 20260507042019 | 6 | 222 | 4.8 | 9.7 | 0.00 | 0.33 | 0.00 | 90 | 1006.8 |
| 20260507041533 | 6 | 221 | 6.4 | 9.7 | 0.00 | 0.33 | 0.00 | 90 | 1006.9 |
| 20260507041019 | 6 | 229 | 6.4 | 12.9 | 0.00 | 0.33 | 0.00 | 90 | 1006.8 |
| 20260507040517 | 6 | 221 | 8.0 | 12.9 | 0.00 | 0.33 | 0.00 | 90 | 1006.9 |
| 20260507040037 | 6 | 225 | 9.7 | 12.9 | 0.00 | 0.33 | 0.00 | 90 | 1006.9 |
| 20260507035520 | 6 | 224 | 8.0 | 16.1 | 0.00 | 0.33 | 0.33 | 90 | 1007.0 |
| 20260507035016 | 6 | 234 | 9.7 | 16.1 | 0.00 | 0.33 | 0.33 | 90 | 1007.0 |
| 20260507034539 | 6 | 244 | 9.7 | 14.5 | 0.00 | 0.33 | 0.33 | 90 | 1007.0 |
| 20260507034020 | 6 | 236 | 9.7 | 14.5 | 0.00 | 0.33 | 0.33 | 89 | 1007.1 |
| 20260507033516 | 6 | 242 | 9.7 | 14.5 | 0.00 | 0.33 | 0.33 | 89 | 1007.1 |
| 20260507033043 | 6 | 230 | 9.7 | 14.5 | 0.00 | 0.33 | 0.33 | 89 | 1007.1 |
| 20260507032517 | 6 | 228 | 9.7 | 14.5 | 0.00 | 0.33 | 0.33 | 89 | 1007.2 |
| 20260507032019 | 6 | 231 | 8.0 | 14.5 | 0.00 | 0.33 | 0.33 | 89 | 1007.1 |
| 20260507031550 | 6 | 232 | 8.0 | 14.5 | 0.00 | 0.33 | 0.33 | 89 | 1007.2 |
| 20260507031021 | 6 | 233 | 8.0 | 14.5 | 0.00 | 0.33 | 0.33 | 89 | 1007.2 |
| 20260507030516 | 6 | 232 | 8.0 | 14.5 | 0.00 | 0.33 | 0.33 | 89 | 1007.3 |
| 20260507030033 | 6 | 232 | 9.7 | 16.1 | 0.00 | 0.33 | 0.33 | 88 | 1007.3 |
| 20260507025516 | 6 | 213 | 9.7 | 16.1 | 0.00 | 0.33 | 0.33 | 88 | 1007.4 |
| 20260507025020 | 6 | 235 | 9.7 | 16.1 | 0.00 | 0.33 | 0.33 | 88 | 1007.4 |
| 20260507024534 | 6 | 238 | 9.7 | 17.7 | 0.00 | 0.33 | 0.33 | 87 | 1007.3 |
| 20260507024015 | 6 | 238 | 9.7 | 17.7 | 0.00 | 0.33 | 0.33 | 87 | 1007.4 |
| 20260507023515 | 6 | 227 | 9.7 | 14.5 | 0.00 | 0.33 | 0.33 | 87 | 1007.5 |
| 20260507023030 | 6 | 230 | 9.7 | 16.1 | 0.00 | 0.33 | 0.33 | 87 | 1007.5 |
| 20260507022516 | 6 | 226 | 9.7 | 16.1 | 0.00 | 0.33 | 0.33 | 88 | 1007.5 |
| 20260507022016 | 6 | 229 | 11.3 | 16.1 | 0.00 | 0.33 | 0.33 | 88 | 1007.6 |
| 20260507021530 | 6 | 223 | 9.7 | 16.1 | 0.00 | 0.33 | 0.33 | 88 | 1007.6 |
| 20260507021015 | 6 | 228 | 8.0 | 16.1 | 0.00 | 0.33 | 0.33 | 88 | 1007.6 |
| 20260507020516 | 6 | 233 | 9.7 | 14.5 | 0.00 | 0.33 | 0.33 | 88 | 1007.7 |
| 20260507020030 | 6 | 226 | 9.7 | 14.5 | 0.00 | 0.33 | 0.33 | 88 | 1007.7 |
| 20260507015515 | 6 | 232 | 8.0 | 12.9 | 0.00 | 0.33 | 0.33 | 88 | 1007.7 |
| 20260507015015 | 6 | 219 | 8.0 | 11.3 | 0.00 | 0.33 | 0.33 | 89 | 1007.8 |
| 20260507014541 | 6 | 215 | 4.8 | 8.0 | 0.00 | 0.33 | 0.33 | 90 | 1007.9 |
| 20260507014016 | 6 | 206 | 6.4 | 8.0 | 0.00 | 0.33 | 0.33 | 90 | 1007.9 |
| 20260507013516 | 6 | 206 | 4.8 | 8.0 | 0.00 | 0.33 | 0.33 | 90 | 1007.9 |
| 20260507013039 | 6 | 217 | 4.8 | 8.0 | 0.00 | 0.33 | 0.33 | 90 | 1008.0 |
| 20260507012516 | 6 | 195 | 4.8 | 6.4 | 0.00 | 0.33 | 0.33 | 90 | 1007.7 |
| 20260507012016 | 6 | 196 | 4.8 | 6.4 | 0.00 | 0.33 | 0.33 | 90 | 1007.8 |
| 20260507011536 | 6 | 198 | 3.2 | 4.8 | 0.00 | 0.33 | 0.33 | 90 | 1007.8 |
| 20260507011015 | 6 | 199 | 3.2 | 4.8 | 0.00 | 0.33 | 0.33 | 90 | 1007.7 |
| 20260507010516 | 6 | 200 | 3.2 | 4.8 | 0.00 | 0.33 | 0.33 | 89 | 1007.7 |
| 20260507010039 | 6 | 194 | 4.8 | 4.8 | 0.00 | 0.33 | 0.33 | 89 | 1007.6 |
| 20260507005515 | 7 | 207 | 3.2 | 4.8 | 0.00 | 0.33 | 0.33 | 88 | 1007.5 |
| 20260507005023 | 7 | 208 | 3.2 | 4.8 | 0.00 | 0.33 | 0.33 | 87 | 1007.5 |
| 20260507004532 | 7 | 211 | 3.2 | 8.0 | 0.00 | 0.33 | 0.33 | 87 | 1007.4 |
| 20260507004016 | 7 | 206 | 4.8 | 11.3 | 0.00 | 0.33 | 0.33 | 86 | 1007.4 |
| 20260507003515 | 7 | 192 | 6.4 | 11.3 | 0.00 | 0.33 | 0.33 | 86 | 1007.3 |
| 20260507003030 | 7 | 189 | 6.4 | 9.7 | 0.00 | 0.33 | 0.33 | 86 | 1007.3 |
| 20260507002515 | 7 | 175 | 6.4 | 8.0 | 0.00 | 0.33 | 0.33 | 86 | 1007.4 |
| 20260507002016 | 7 | 200 | 4.8 | 8.0 | 0.00 | 0.33 | 0.33 | 86 | 1007.3 |
| 20260507001535 | 7 | 201 | 4.8 | 8.0 | 0.00 | 0.33 | 0.33 | 85 | 1007.4 |
| 20260507001016 | 7 | 213 | 3.2 | 8.0 | 0.00 | 0.33 | 0.33 | 85 | 1007.4 |
| 20260507000516 | 7 | 213 | 4.8 | 9.7 | 0.00 | 0.33 | 0.33 | 85 | 1007.2 |
| 20260507000034 | 7 | 215 | 6.4 | 14.5 | 0.00 | 0.33 | 0.33 | 85 | 1007.3 |
| 20260506235519 | 7 | 215 | 6.4 | 14.5 | 0.00 | 0.33 | 0.33 | 85 | 1007.4 |
| 20260506235015 | 7 | 217 | 8.0 | 14.5 | 0.00 | 0.33 | 0.33 | 84 | 1007.3 |
| 20260506234530 | 7 | 221 | 6.4 | 9.7 | 0.00 | 0.33 | 0.33 | 85 | 1007.2 |
| 20260506234016 | 7 | 213 | 6.4 | 11.3 | 0.00 | 0.33 | 0.33 | 85 | 1007.1 |
| 20260506233517 | 7 | 221 | 8.0 | 11.3 | 0.00 | 0.33 | 0.33 | 84 | 1007.2 |
| 20260506233031 | 7 | 202 | 6.4 | 9.7 | 0.00 | 0.33 | 0.33 | 84 | 1007.1 |
| 20260506232516 | 7 | 209 | 4.8 | 11.3 | 0.00 | 0.33 | 0.33 | 85 | 1007.1 |
| 20260506232016 | 7 | 220 | 8.0 | 11.3 | 0.00 | 0.33 | 0.33 | 84 | 1007.2 |
| 20260506231535 | 7 | 212 | 8.0 | 11.3 | 0.00 | 0.33 | 0.33 | 83 | 1007.2 |
| 20260506231016 | 7 | 204 | 4.8 | 14.5 | 0.00 | 0.33 | 0.33 | 84 | 1007.2 |
| 20260506230515 | 8 | 234 | 8.0 | 16.1 | 0.00 | 0.33 | 0.33 | 82 | 1007.2 |
| 20260506230033 | 8 | 241 | 11.3 | 16.1 | 0.00 | 0.33 | 0.33 | 82 | 1007.1 |
| 20260506225516 | 8 | 244 | 8.0 | 14.5 | 0.00 | 0.33 | 0.33 | 81 | 1007.2 |
| 20260506225023 | 8 | 242 | 9.7 | 16.1 | 0.00 | 0.33 | 0.33 | 81 | 1007.2 |
| 20260506224534 | 8 | 240 | 12.9 | 17.7 | 0.00 | 0.33 | 0.33 | 80 | 1007.3 |
| 20260506224015 | 8 | 227 | 12.9 | 17.7 | 0.00 | 0.33 | 0.33 | 80 | 1007.3 |
| 20260506223515 | 8 | 223 | 9.7 | 14.5 | 0.00 | 0.33 | 0.33 | 82 | 1007.4 |
| 20260506223031 | 8 | 213 | 9.7 | 14.5 | 0.00 | 0.33 | 0.33 | 83 | 1007.3 |
| 20260506222517 | 8 | 218 | 9.7 | 16.1 | 0.00 | 0.33 | 0.33 | 80 | 1007.4 |
| 20260506222017 | 8 | 229 | 9.7 | 17.7 | 0.00 | 0.33 | 0.33 | 80 | 1007.3 |
| 20260506221530 | 8 | 227 | 11.3 | 17.7 | 0.00 | 0.33 | 0.33 | 80 | 1007.2 |
| 20260506221015 | 8 | 219 | 9.7 | 12.9 | 0.00 | 0.33 | 0.33 | 81 | 1007.4 |
| 20260506220516 | 8 | 242 | 8.0 | 12.9 | 0.00 | 0.33 | 0.33 | 81 | 1007.3 |
| 20260506220032 | 8 | 219 | 8.0 | 14.5 | 0.00 | 0.33 | 0.33 | 81 | 1007.3 |
| 20260506215516 | 8 | 231 | 9.7 | 16.1 | 0.00 | 0.33 | 0.33 | 81 | 1007.4 |
| 20260506215016 | 8 | 215 | 8.0 | 16.1 | 0.00 | 0.33 | 0.33 | 82 | 1007.3 |
| 20260506214531 | 8 | 215 | 8.0 | 14.5 | 0.00 | 0.33 | 0.33 | 81 | 1007.3 |
| 20260506214020 | 8 | 218 | 11.3 | 14.5 | 0.00 | 0.33 | 0.33 | 80 | 1007.3 |
| 20260506213522 | 8 | 229 | 9.7 | 14.5 | 0.00 | 0.33 | 0.33 | 82 | 1007.4 |
| 20260506213037 | 8 | 226 | 6.4 | 12.9 | 0.00 | 0.33 | 0.33 | 82 | 1007.4 |
| 20260506212516 | 8 | 192 | 8.0 | 12.9 | 0.00 | 0.33 | 0.33 | 82 | 1007.4 |
| 20260506212019 | 8 | 218 | 9.7 | 12.9 | 0.00 | 0.33 | 0.33 | 82 | 1007.6 |
| 20260506211533 | 8 | 213 | 6.4 | 14.5 | 0.00 | 0.33 | 0.33 | 82 | 1007.4 |
| 20260506211017 | 8 | 217 | 8.0 | 14.5 | 0.00 | 0.33 | 0.33 | 82 | 1007.4 |
| 20260506210517 | 8 | 209 | 6.4 | 12.9 | 0.00 | 0.33 | 0.33 | 82 | 1007.3 |
| 20260506210034 | 8 | 199 | 8.0 | 12.9 | 0.00 | 0.33 | 0.33 | 81 | 1007.3 |
| 20260506205516 | 8 | 215 | 8.0 | 14.5 | 0.00 | 0.33 | 0.33 | 82 | 1007.7 |
| 20260506205016 | 8 | 175 | 8.0 | 14.5 | 0.00 | 0.33 | 0.33 | 82 | 1007.5 |
| 20260506204530 | 8 | 219 | 6.4 | 12.9 | 0.00 | 0.33 | 0.33 | 82 | 1007.4 |
| 20260506204016 | 8 | 218 | 9.7 | 12.9 | 0.00 | 0.33 | 0.33 | 80 | 1007.7 |
| 20260506203516 | 8 | 226 | 9.7 | 12.9 | 0.00 | 0.33 | 0.33 | 81 | 1007.7 |
| 20260506203038 | 8 | 223 | 6.4 | 11.3 | 0.00 | 0.33 | 0.33 | 81 | 1007.7 |
| 20260506202516 | 7 | 214 | 4.8 | 11.3 | 0.00 | 0.33 | 0.33 | 84 | 1007.6 |
| 20260506202017 | 7 | 200 | 8.0 | 12.9 | 0.00 | 0.33 | 0.33 | 85 | 1007.6 |
| 20260506201538 | 7 | 209 | 9.7 | 12.9 | 0.00 | 0.33 | 0.33 | 84 | 1007.7 |
| 20260506201016 | 7 | 205 | 6.4 | 9.7 | 0.00 | 0.33 | 0.33 | 84 | 1007.7 |
| 20260506200515 | 7 | 238 | 8.0 | 11.3 | 0.00 | 0.33 | 0.33 | 84 | 1007.8 |
| 20260506200038 | 7 | 201 | 6.4 | 11.3 | 0.00 | 0.33 | 0.33 | 83 | 1007.8 |
| 20260506195520 | 7 | 202 | 6.4 | 11.3 | 0.00 | 0.33 | 0.33 | 84 | 1007.8 |
| 20260506195018 | 7 | 203 | 8.0 | 11.3 | 0.00 | 0.33 | 0.33 | 83 | 1007.8 |
| 20260506194530 | 7 | 202 | 8.0 | 11.3 | 0.00 | 0.33 | 0.33 | 84 | 1007.8 |
| 20260506194019 | 7 | 180 | 8.0 | 11.3 | 0.00 | 0.33 | 0.33 | 83 | 1007.9 |
| 20260506193518 | 7 | 198 | 8.0 | 12.9 | 0.00 | 0.33 | 0.33 | 82 | 1007.9 |
| 20260506193031 | 7 | 202 | 8.0 | 16.1 | 0.00 | 0.33 | 0.33 | 83 | 1008.0 |
| 20260506192516 | 7 | 219 | 8.0 | 16.1 | 0.00 | 0.33 | 0.33 | 86 | 1008.1 |
| 20260506192019 | 7 | 221 | 8.0 | 12.9 | 0.00 | 0.33 | 0.33 | 86 | 1008.0 |
| 20260506191530 | 7 | 201 | 8.0 | 14.5 | 0.00 | 0.33 | 0.33 | 84 | 1008.0 |
| 20260506191016 | 7 | 175 | 8.0 | 14.5 | 0.00 | 0.33 | 0.33 | 84 | 1008.0 |
| 20260506190516 | 7 | 212 | 8.0 | 14.5 | 0.00 | 0.33 | 0.33 | 86 | 1008.1 |
| 20260506190038 | 7 | 192 | 8.0 | 14.5 | 0.00 | 0.33 | 0.33 | 85 | 1008.2 |
| 20260506185516 | 7 | 177 | 9.7 | 16.1 | 0.00 | 0.33 | 0.33 | 84 | 1008.0 |
| 20260506185016 | 7 | 180 | 9.7 | 16.1 | 0.00 | 0.33 | 0.33 | 84 | 1008.2 |
| 20260506184536 | 7 | 163 | 8.0 | 12.9 | 0.00 | 0.33 | 0.33 | 85 | 1008.1 |
| 20260506184020 | 7 | 205 | 4.8 | 12.9 | 0.00 | 0.33 | 0.33 | 85 | 1008.3 |
| 20260506183517 | 7 | 224 | 6.4 | 9.7 | 0.00 | 0.33 | 0.33 | 86 | 1008.3 |
| 20260506183032 | 7 | 225 | 6.4 | 9.7 | 0.00 | 0.33 | 0.33 | 85 | 1008.3 |
| 20260506182517 | 7 | 165 | 4.8 | 9.7 | 0.00 | 0.33 | 0.33 | 86 | 1008.2 |
| 20260506182016 | 7 | 217 | 6.4 | 9.7 | 0.00 | 0.33 | 0.33 | 87 | 1008.3 |
| 20260506181532 | 6 | 214 | 6.4 | 12.9 | 0.00 | 0.33 | 0.33 | 85 | 1008.3 |
| 20260506181018 | 6 | 226 | 8.0 | 17.7 | 0.00 | 0.33 | 0.33 | 86 | 1008.5 |
| 20260506180518 | 7 | 224 | 9.7 | 19.3 | 0.00 | 0.33 | 0.33 | 86 | 1008.5 |
| 20260506180032 | 7 | 234 | 14.5 | 19.3 | 0.00 | 0.33 | 0.33 | 85 | 1008.6 |
| 20260506175517 | 7 | 198 | 11.3 | 17.7 | 0.00 | 0.33 | 0.33 | 85 | 1008.5 |
| 20260506175017 | 7 | 171 | 9.7 | 19.3 | 0.00 | 0.33 | 0.33 | 85 | 1008.4 |
| 20260506174531 | 7 | 212 | 9.7 | 19.3 | 0.00 | 0.33 | 0.33 | 85 | 1008.4 |
| 20260506174016 | 7 | 153 | 11.3 | 19.3 | 0.00 | 0.33 | 0.33 | 86 | 1008.4 |
| 20260506173517 | 7 | 185 | 11.3 | 19.3 | 0.00 | 0.33 | 0.33 | 86 | 1008.4 |
| 20260506173045 | 7 | 170 | 12.9 | 17.7 | 0.00 | 0.33 | 0.33 | 86 | 1008.7 |
| 20260506172516 | 6 | 198 | 11.3 | 17.7 | 0.00 | 0.33 | 0.33 | 88 | 1008.6 |
| 20260506172017 | 6 | 212 | 12.9 | 17.7 | 0.00 | 0.33 | 0.33 | 87 | 1008.8 |
| 20260506171536 | 6 | 186 | 12.9 | 17.7 | 0.00 | 0.33 | 0.33 | 88 | 1008.7 |
| 20260506171017 | 6 | 184 | 12.9 | 17.7 | 0.00 | 0.33 | 0.33 | 90 | 1008.6 |
| 20260506170517 | 6 | 213 | 14.5 | 19.3 | 0.03 | 0.33 | 0.33 | 88 | 1008.5 |
| 20260506170031 | 6 | 194 | 12.9 | 22.5 | 0.03 | 0.33 | 0.33 | 89 | 1008.5 |
| 20260506165516 | 6 | 175 | 14.5 | 22.5 | 0.03 | 0.33 | 0.33 | 88 | 1008.7 |
| 20260506165017 | 6 | 217 | 11.3 | 20.9 | 0.03 | 0.33 | 0.33 | 89 | 1008.7 |
| 20260506164534 | 6 | 194 | 12.9 | 20.9 | 0.05 | 0.33 | 0.33 | 89 | 1009.0 |
| 20260506164018 | 6 | 198 | 9.7 | 16.1 | 0.05 | 0.33 | 0.33 | 89 | 1009.0 |
| 20260506163519 | 6 | 209 | 8.0 | 12.9 | 0.05 | 0.33 | 0.33 | 88 | 1009.0 |
| 20260506163037 | 6 | 204 | 8.0 | 14.5 | 0.05 | 0.33 | 0.33 | 89 | 1008.9 |
| 20260506162519 | 6 | 214 | 9.7 | 14.5 | 0.05 | 0.33 | 0.33 | 90 | 1009.1 |
| 20260506162016 | 6 | 207 | 6.4 | 12.9 | 0.08 | 0.33 | 0.33 | 89 | 1009.3 |
| 20260506161534 | 6 | 225 | 8.0 | 12.9 | 0.08 | 0.33 | 0.33 | 88 | 1009.3 |
| 20260506161017 | 6 | 201 | 6.4 | 12.9 | 0.10 | 0.33 | 0.33 | 89 | 1009.4 |
| 20260506160517 | 5 | 215 | 6.4 | 9.7 | 0.08 | 0.30 | 0.30 | 88 | 1009.5 |
| 20260506160032 | 5 | 207 | 6.4 | 11.3 | 0.08 | 0.30 | 0.30 | 89 | 1009.5 |
| 20260506155517 | 5 | 215 | 8.0 | 11.3 | 0.10 | 0.36 | 0.30 | 89 | 1009.6 |
| 20260506155017 | 5 | 199 | 8.0 | 11.3 | 0.08 | 0.33 | 0.28 | 89 | 1009.7 |
| 20260506154534 | 5 | 215 | 8.0 | 16.1 | 0.10 | 0.33 | 0.28 | 89 | 1009.7 |
| 20260506154019 | 5 | 209 | 8.0 | 16.1 | 0.13 | 0.33 | 0.28 | 89 | 1009.7 |
| 20260506153514 | 5 | 227 | 9.7 | 16.1 | 0.15 | 0.33 | 0.28 | 90 | 1009.6 |
| 20260506153035 | 5 | 215 | 11.3 | 16.1 | 0.15 | 0.33 | 0.28 | 91 | 1009.6 |
| 20260506152517 | 5 | 212 | 11.3 | 16.1 | 0.13 | 0.30 | 0.25 | 90 | 1009.5 |
| 20260506152018 | 5 | 208 | 11.3 | 16.1 | 0.15 | 0.30 | 0.25 | 90 | 1009.6 |
| 20260506151530 | 5 | 218 | 9.7 | 17.7 | 0.15 | 0.30 | 0.25 | 92 | 1009.6 |
| 20260506151020 | 5 | 210 | 11.3 | 17.7 | 0.13 | 0.28 | 0.23 | 91 | 1009.6 |
| 20260506150516 | 5 | 186 | 12.9 | 19.3 | 0.15 | 0.28 | 0.23 | 91 | 1009.5 |
| 20260506150035 | 5 | 177 | 12.9 | 19.3 | 0.13 | 0.25 | 0.20 | 91 | 1009.5 |
| 20260506145549 | 5 | 181 | 12.9 | 19.3 | 0.13 | 0.38 | 0.20 | 91 | 1009.4 |
| 20260506145016 | 5 | 189 | 12.9 | 22.5 | 0.13 | 0.38 | 0.20 | 92 | 1009.3 |
| 20260506144538 | 5 | 175 | 16.1 | 22.5 | 0.13 | 0.36 | 0.18 | 91 | 1009.4 |
| 20260506144017 | 5 | 206 | 12.9 | 24.1 | 0.10 | 0.33 | 0.15 | 91 | 1009.2 |
| 20260506143519 | 5 | 225 | 14.5 | 25.7 | 0.08 | 0.30 | 0.13 | 90 | 1009.2 |
| 20260506143033 | 6 | 148 | 17.7 | 25.7 | 0.10 | 0.30 | 0.13 | 90 | 1009.2 |
| 20260506142519 | 6 | 159 | 14.5 | 22.5 | 0.08 | 0.28 | 0.10 | 90 | 1009.3 |
| 20260506142016 | 6 | 178 | 14.5 | 20.9 | 0.08 | 0.28 | 0.10 | 91 | 1009.3 |
| 20260506141532 | 6 | 177 | 14.5 | 20.9 | 0.10 | 0.28 | 0.10 | 91 | 1009.4 |
| 20260506141020 | 6 | 172 | 12.9 | 22.5 | 0.10 | 0.28 | 0.10 | 91 | 1009.4 |
| 20260506140517 | 6 | 211 | 14.5 | 22.5 | 0.08 | 0.25 | 0.08 | 91 | 1009.4 |
| 20260506140033 | 6 | 205 | 11.3 | 22.5 | 0.08 | 0.25 | 0.08 | 92 | 1009.3 |
| 20260506135515 | 6 | 187 | 14.5 | 25.7 | 0.08 | 0.25 | 0.08 | 91 | 1009.2 |
| 20260506135016 | 6 | 156 | 14.5 | 25.7 | 0.08 | 0.25 | 0.08 | 91 | 1009.3 |
| 20260506134531 | 6 | 163 | 17.7 | 27.4 | 0.05 | 0.23 | 0.05 | 91 | 1009.0 |
| 20260506134017 | 6 | 171 | 19.3 | 27.4 | 0.05 | 0.23 | 0.05 | 90 | 1008.9 |
| 20260506133520 | 6 | 203 | 19.3 | 27.4 | 0.03 | 0.20 | 0.03 | 89 | 1008.8 |
| 20260506133031 | 6 | 180 | 17.7 | 25.7 | 0.03 | 0.20 | 0.03 | 89 | 1008.8 |
| 20260506132522 | 6 | 196 | 16.1 | 24.1 | 0.03 | 0.20 | 0.03 | 89 | 1009.0 |
| 20260506132016 | 6 | 169 | 14.5 | 19.3 | 0.03 | 0.20 | 0.03 | 89 | 1008.8 |
| 20260506131541 | 6 | 169 | 11.3 | 19.3 | 0.00 | 0.18 | 0.00 | 89 | 1008.9 |
| 20260506131017 | 6 | 180 | 12.9 | 19.3 | 0.00 | 0.18 | 0.00 | 89 | 1008.9 |
| 20260506130519 | 6 | 198 | 12.9 | 19.3 | 0.00 | 0.18 | 0.00 | 89 | 1008.8 |
| 20260506130037 | 6 | 211 | 12.9 | 19.3 | 0.00 | 0.18 | 0.00 | 88 | 1008.8 |
| 20260506125516 | 6 | 214 | 11.3 | 20.9 | 0.00 | 0.18 | 0.00 | 89 | 1009.0 |
| 20260506125019 | 6 | 201 | 14.5 | 25.7 | 0.00 | 0.18 | 0.00 | 88 | 1008.9 |
| 20260506124530 | 6 | 210 | 12.9 | 25.7 | 0.00 | 0.18 | 0.00 | 89 | 1009.1 |
| 20260506124016 | 6 | 188 | 14.5 | 27.4 | 0.00 | 0.18 | 0.00 | 89 | 1009.1 |
| 20260506123516 | 6 | 167 | 16.1 | 27.4 | 0.00 | 0.18 | 0.00 | 89 | 1009.0 |
| 20260506123034 | 6 | 175 | 20.9 | 27.4 | 0.00 | 0.18 | 0.00 | 88 | 1008.8 |
| 20260506122517 | 6 | 173 | 19.3 | 27.4 | 0.00 | 0.18 | 0.00 | 88 | 1008.8 |
| 20260506122017 | 6 | 156 | 19.3 | 27.4 | 0.00 | 0.18 | 0.00 | 88 | 1008.6 |
| 20260506121533 | 6 | 182 | 17.7 | 25.7 | 0.00 | 0.18 | 0.00 | 88 | 1008.7 |
| 20260506121016 | 6 | 160 | 16.1 | 25.7 | 0.00 | 0.18 | 0.00 | 87 | 1008.6 |
| 20260506120517 | 6 | 156 | 17.7 | 24.1 | 0.00 | 0.18 | 0.00 | 86 | 1008.7 |
| 20260506120035 | 7 | 161 | 14.5 | 22.5 | 0.00 | 0.18 | 0.00 | 85 | 1008.8 |
| 20260506115519 | 7 | 185 | 14.5 | 17.7 | 0.00 | 0.18 | 0.00 | 84 | 1008.7 |
| 20260506115017 | 7 | 188 | 12.9 | 17.7 | 0.00 | 0.18 | 0.00 | 84 | 1008.7 |
| 20260506114535 | 7 | 209 | 12.9 | 19.3 | 0.00 | 0.18 | 0.00 | 82 | 1008.8 |
| 20260506114017 | 7 | 197 | 12.9 | 19.3 | 0.00 | 0.18 | 0.00 | 81 | 1008.9 |
| 20260506113517 | 7 | 197 | 14.5 | 17.7 | 0.00 | 0.18 | 0.00 | 81 | 1009.0 |
| 20260506113030 | 7 | 209 | 11.3 | 16.1 | 0.00 | 0.18 | 0.00 | 81 | 1008.9 |
| 20260506112516 | 7 | 207 | 11.3 | 16.1 | 0.00 | 0.18 | 0.00 | 80 | 1008.9 |
| 20260506112016 | 7 | 190 | 11.3 | 14.5 | 0.00 | 0.18 | 0.00 | 79 | 1008.9 |
| 20260506111534 | 7 | 171 | 9.7 | 14.5 | 0.00 | 0.18 | 0.00 | 78 | 1009.0 |
| 20260506111017 | 8 | 187 | 9.7 | 16.1 | 0.00 | 0.18 | 0.00 | 76 | 1008.9 |
| 20260506110517 | 8 | 209 | 11.3 | 16.1 | 0.00 | 0.18 | 0.00 | 76 | 1008.9 |
| 20260506110034 | 8 | 225 | 9.7 | 17.7 | 0.00 | 0.18 | 0.00 | 76 | 1008.9 |
| 20260506105516 | 8 | 218 | 11.3 | 17.7 | 0.00 | 0.18 | 0.00 | 76 | 1008.9 |
| 20260506105021 | 8 | 220 | 9.7 | 17.7 | 0.00 | 0.18 | 0.00 | 77 | 1008.8 |
| 20260506104531 | 8 | 219 | 11.3 | 17.7 | 0.00 | 0.18 | 0.00 | 77 | 1008.7 |
| 20260506104017 | 8 | 217 | 9.7 | 17.7 | 0.00 | 0.18 | 0.00 | 78 | 1008.6 |
| 20260506103517 | 8 | 211 | 9.7 | 16.1 | 0.00 | 0.18 | 0.00 | 78 | 1008.6 |
| 20260506103043 | 8 | 211 | 11.3 | 16.1 | 0.00 | 0.18 | 0.00 | 78 | 1008.6 |
| 20260506102517 | 8 | 217 | 11.3 | 16.1 | 0.00 | 0.18 | 0.00 | 79 | 1008.5 |
| 20260506102017 | 8 | 219 | 11.3 | 14.5 | 0.00 | 0.18 | 0.00 | 80 | 1008.4 |
| 20260506101548 | 8 | 208 | 8.0 | 14.5 | 0.00 | 0.18 | 0.00 | 81 | 1008.4 |
| 20260506101016 | 8 | 213 | 9.7 | 17.7 | 0.00 | 0.18 | 0.00 | 80 | 1008.2 |
| 20260506100516 | 8 | 207 | 11.3 | 19.3 | 0.00 | 0.18 | 0.00 | 78 | 1008.1 |
| 20260506100045 | 8 | 222 | 12.9 | 19.3 | 0.00 | 0.18 | 0.00 | 77 | 1008.1 |
| 20260506095517 | 8 | 219 | 9.7 | 16.1 | 0.00 | 0.18 | 0.00 | 77 | 1008.0 |
| 20260506095022 | 8 | 212 | 9.7 | 17.7 | 0.00 | 0.18 | 0.00 | 76 | 1007.8 |
| 20260506094534 | 8 | 205 | 9.7 | 17.7 | 0.00 | 0.18 | 0.00 | 74 | 1008.0 |
| 20260506094022 | 8 | 213 | 9.7 | 16.1 | 0.00 | 0.18 | 0.00 | 74 | 1008.0 |
| 20260506093517 | 8 | 192 | 11.3 | 22.5 | 0.00 | 0.18 | 0.00 | 77 | 1007.9 |
| 20260506093040 | 8 | 211 | 11.3 | 22.5 | 0.00 | 0.18 | 0.00 | 73 | 1007.8 |
| 20260506092517 | 8 | 216 | 12.9 | 20.9 | 0.00 | 0.18 | 0.00 | 73 | 1007.7 |
| 20260506092019 | 8 | 198 | 11.3 | 20.9 | 0.00 | 0.18 | 0.00 | 78 | 1007.8 |
| 20260506091535 | 8 | 221 | 11.3 | 16.1 | 0.00 | 0.18 | 0.00 | 84 | 1007.7 |
| 20260506091017 | 8 | 221 | 11.3 | 17.7 | 0.00 | 0.18 | 0.00 | 83 | 1007.7 |
| 20260506090517 | 8 | 223 | 8.0 | 17.7 | 0.00 | 0.18 | 0.00 | 84 | 1007.7 |
| 20260506090035 | 8 | 230 | 8.0 | 16.1 | 0.00 | 0.18 | 0.00 | 84 | 1007.9 |
| 20260506085517 | 8 | 235 | 8.0 | 12.9 | 0.00 | 0.18 | 0.00 | 84 | 1007.9 |
| 20260506085018 | 8 | 240 | 8.0 | 12.9 | 0.00 | 0.18 | 0.00 | 83 | 1007.8 |
| 20260506084554 | 8 | 240 | 9.7 | 12.9 | 0.00 | 0.18 | 0.00 | 82 | 1007.8 |
| 20260506084017 | 8 | 248 | 8.0 | 12.9 | 0.00 | 0.18 | 0.00 | 82 | 1007.9 |
| 20260506083517 | 8 | 235 | 8.0 | 12.9 | 0.00 | 0.18 | 0.00 | 81 | 1008.0 |
| 20260506083035 | 8 | 223 | 8.0 | 11.3 | 0.00 | 0.18 | 0.00 | 81 | 1008.1 |
| 20260506082521 | 8 | 241 | 6.4 | 11.3 | 0.00 | 0.18 | 0.00 | 81 | 1008.2 |
| 20260506082017 | 8 | 244 | 6.4 | 12.9 | 0.00 | 0.18 | 0.00 | 80 | 1008.2 |
| 20260506081541 | 9 | 237 | 8.0 | 12.9 | 0.00 | 0.18 | 0.00 | 79 | 1008.3 |
| 20260506081017 | 9 | 247 | 8.0 | 12.9 | 0.00 | 0.18 | 0.00 | 79 | 1008.2 |
| 20260506080517 | 9 | 252 | 8.0 | 14.5 | 0.00 | 0.18 | 0.00 | 79 | 1008.2 |
| 20260506073517 | 9 | 240 | 9.7 | 14.5 | 0.00 | 0.18 | 0.00 | 79 | 1007.6 |
| 20260506073043 | 9 | 246 | 9.7 | 14.5 | 0.00 | 0.18 | 0.00 | 79 | 1007.7 |
| 20260506072517 | 9 | 256 | 9.7 | 16.1 | 0.00 | 0.18 | 0.00 | 78 | 1007.7 |
| 20260506072017 | 9 | 245 | 9.7 | 20.9 | 0.00 | 0.18 | 0.00 | 78 | 1007.7 |
| 20260506071537 | 10 | 239 | 14.5 | 20.9 | 0.00 | 0.18 | 0.00 | 77 | 1007.7 |
| 20260506071019 | 10 | 251 | 11.3 | 17.7 | 0.00 | 0.18 | 0.00 | 77 | 1007.7 |